Lexington Weather

Lexington, Massachusetts, USA

48°F
9/19/2020 9:04am 
  • Lexington Conditions: Clear
  • Temperature: 47.5°F / 8.6°CWarmer 3.6°F than last hour.
  • Dew Point: 37.0°FIncreased 0.9°Fsince last hour.
  • Relative Humidity: 67%Decreased 7.0% since last hour.
  • Wind: Wind from ENE ENE 2 mph, 10-min avg: 1 mph, gust: 4 mph
  • Barometer: 30.26 inRising 0.02  inHg/hr Rising Slowly
  • Visibility: 10 miles
  • Rain Today: 0.00 in
  •   
Southeast Middlesex County - Special Weather Statement
 - SEE ALL NEARBY ALERTS -

Regional Weather Roundup
for Boston / Norton, MA

        
000
ASUS41 KBOX 161304
RWRBOX

REGIONAL WEATHER ROUNDUP
NATIONAL WEATHER SERVICE BOSTON/NORTON MA
900 AM EDT WED SEP 16 2020

NOTE:  "FAIR" INDICATES FEW OR NO CLOUDS BELOW 12,000 FEET WITH NO 
SIGNIFICANT WEATHER AND/OR OBSTRUCTIONS TO VISIBILITY.

MAZALL-161400-
EASTERN MASSACHUSETTS
  
CITY           SKY/WX    TMP DP  RH WIND       PRES   REMARKS
BOSTON         CLOUDY    59  50  72 SW10      30.25S                  
BEVERLY        SUNNY     59  51  75 SW10      30.23S                  
LAWRENCE       SUNNY     56  50  80 SW8       30.24S                  
BEDFORD        SUNNY     58  51  78 SW10      30.22S                  
BLUE HILL        N/A     58  50  75 SW15G24   30.23S                  
NORWOOD        SUNNY     61  52  72 SW10      30.24F                  
MARSHFIELD     SUNNY     61  55  82 SW7       30.25S                  
PLYMOUTH       CLOUDY    58  53  84 SW8       30.26S                  
TAUNTON        SUNNY     60  54  80 VRB3      30.26S                  
NEW BEDFORD    PTSUNNY   61  55  81 S3        30.26S                  
$$

MAZALL-161400-
CAPE COD AND THE ISLANDS
  
CITY           SKY/WX    TMP DP  RH WIND       PRES   REMARKS
FALMOUTH       MOSUNNY   63  54  72 SW12G20   30.28R                  
HYANNIS        MOSUNNY   64  54  69 SW12      30.26R                  
CHATHAM        MOSUNNY   64  54  69 SW8G17    30.29R                  
PROVINCETOWN   MOSUNNY   63  57  81 SW13      30.27S                  
NANTUCKET      SUNNY     63  52  67 S15       30.29S                  
MARTHAS VNYRD  MOSUNNY   65  52  62 SW12      30.28S                  
$$
 
MAZALL-161400-
CENTRAL AND WESTERN MASSACHUSETTS
  
CITY           SKY/WX    TMP DP  RH WIND       PRES   REMARKS
WORCESTER      SUNNY     56  49  77 SW16      30.24R                  
FITCHBURG      SUNNY     61  49  64 S7        30.22F                  
ORANGE         SUNNY     54  49  83 MISG      30.23S                  
SPRINGFIELD    MOSUNNY   56  50  82 SW5       30.22F                  
WESTFIELD      SUNNY     53  50  89 S5        30.23F                  
NORTH ADAMS    SUNNY     54  47  77 SE6       30.22S                  
PITTSFIELD     SUNNY     48  46  93 CALM      30.22S                  
$$
 
RIZALL-161400-
RHODE ISLAND
  
CITY           SKY/WX    TMP DP  RH WIND       PRES   REMARKS
PROVIDENCE     PTSUNNY   62  53  72 SW8       30.26S                  
NEWPORT        PTSUNNY   65  53  65 S6        30.26S                  
BLOCK ISLAND   CLOUDY    65  52  62 SW12      30.27S                  
SMITHFIELD     SUNNY     58  54  86 VRB7      30.25F                  
WESTERLY       PTSUNNY   64  51  62 SW10      30.27S                  
$$
 
CTZALL-161400-
CONNECTICUT
  
CITY           SKY/WX    TMP DP  RH WIND       PRES   REMARKS
BRADLEY INTL   PTSUNNY   54  49  83 S5        30.24S                  
HARTFORD       SUNNY     57  51  80 SE3       30.25S                  
BRIDGEPORT     SUNNY     62  51  67 W3        30.25F                  
DANBURY        SUNNY     54  50  86 CALM      30.26F                  
GROTON         PTSUNNY   65  52  62 SW17      30.25S                  
NEW HAVEN      CLOUDY    64  56  75 SW7       30.25F                  
CHESTER        NOT AVBL                                               
MERIDEN        SUNNY     54  50  86 CALM      30.25F                  
WILLIMANTIC    MOSUNNY   49  46  90 CALM      30.26F                  
OXFORD         SUNNY     54  50  86 SW3       30.26F                  
$$

MEZ002-015-021-024-NHZ003-005-008-011-012-014-VTZ005-008-161400-
NORTHERN NEW ENGLAND
  
CITY           SKY/WX    TMP DP  RH WIND       PRES   REMARKS
PORTLAND ME    SUNNY     57  48  72 SW9       30.18S                  
BANGOR ME      NOT AVBL                                               
CONCORD NH     SUNNY     50  45  83 CALM      30.20S                  
MANCHESTER NH  MOSUNNY   56  47  71 S9        30.20S                  
NASHUA NH      SUNNY     55  52  89 VRB5      30.22F                  
PORTSMOUTH NH  SUNNY     58  48  69 SW10      30.19S                  
JAFFREY NH     SUNNY     54  46  74 SW8G16    30.21F                  
KEENE NH       SUNNY     47  46  97 CALM      30.22F                  
BURLINGTON VT  PTSUNNY   60  43  53 S22G30    30.07F                  
MT. WASHINGTON CLOUDY    45  12  26 W52G62      N/A                   
$$

NYZ052-076-161400-
EASTERN NEW YORK
  
CITY           SKY/WX    TMP DP  RH WIND       PRES   REMARKS
ALBANY         PTSUNNY   50  47  89 S8        30.21S                  
NEW YORK CITY  CLOUDY    65  50  58 SW8       30.25S                  
$$
 
ANZALL-161400-
MARINE OBSERVATIONS
  
STATION/POSITION TIME  TEMP    WIND        PRES    VSBY  WAVE
                       AIR SEA DIR/SP/G                  HT/PER
                 (UTC) (F)     (DEG/KT/KT) (MB)    (MI)  (FT/S)
BOSTON BUOY      1250   59 63  180/ 12/ 14 1023.0F         2/10
BUZZARDS BAY     1200          210/ 15/ 16 1025.7R
NANTUCKET SOUND  1240      70  200/ 14/ 17   N/A
MASS BAY-STELLWA 1204   60     240/ 17/ 19 1021.6S  1 7/8  3/ 4
ISLE OF SHOALS   NOT AVBL
S OF BLOCK IS    1226      70                N/A           4/10
$$

......................KEY.........................
  SKY/WX - SKY CONDITION/PRESENT WEATHER
  TMP    - TEMPERATURE IN FAHRENHEIT
  DWPT   - DEWPOINT IN FAHRENHEIT
  RH     - RELATIVE HUMIDITY IN PERCENT
  WIND   - DIRECTION AND SPEED IN MPH
  PRES   - MEAN SEA LEVEL PRESSURE IN INCHES OF HG
  WCI    - WIND CHILL INDEX
  VSB    - VISIBILITY IN MILES
  HX     - HEAT INDEX
  TC     - TEMPERATURE IN CELSIUS
  VRB    - VARIABLE WIND DIRECTION
  N/A    - NOT AVAILABLE
  
      

Other recent Regional Weather Roundups

Sat Sep 19, 8:04am

Sat Sep 19, 7:04am

Sat Sep 19, 6:04am

Sat Sep 19, 5:04am

Sat Sep 19, 4:04am

Sat Sep 19, 3:04am

Sat Sep 19, 2:04am

Sat Sep 19, 1:04am

Sat Sep 19, 12:04am

Fri Sep 18, 11:05pm

Fri Sep 18, 10:04pm

Fri Sep 18, 9:04pm

Fri Sep 18, 8:04pm

Fri Sep 18, 7:04pm

Fri Sep 18, 6:04pm

Fri Sep 18, 5:05pm

Fri Sep 18, 4:04pm

Fri Sep 18, 3:05pm

Fri Sep 18, 2:04pm

Fri Sep 18, 1:04pm

Fri Sep 18, 12:04pm

Fri Sep 18, 11:05am

Fri Sep 18, 10:05am

Fri Sep 18, 9:04am

Fri Sep 18, 8:04am

Fri Sep 18, 7:04am

Fri Sep 18, 6:04am

Fri Sep 18, 5:04am

Fri Sep 18, 4:04am

Fri Sep 18, 3:04am

Fri Sep 18, 2:04am

Fri Sep 18, 1:04am

Fri Sep 18, 12:04am

Thu Sep 17, 11:05pm

Thu Sep 17, 10:04pm

Thu Sep 17, 9:04pm

Thu Sep 17, 8:05pm

Thu Sep 17, 7:04pm

Thu Sep 17, 6:04pm

Thu Sep 17, 5:04pm

Thu Sep 17, 4:04pm

Thu Sep 17, 3:05pm

Thu Sep 17, 2:04pm

Thu Sep 17, 1:04pm

Thu Sep 17, 12:04pm

Thu Sep 17, 11:04am

Thu Sep 17, 10:04am

Thu Sep 17, 9:04am

Thu Sep 17, 8:04am

Thu Sep 17, 7:04am

Thu Sep 17, 6:04am

Thu Sep 17, 5:04am

Thu Sep 17, 4:04am

Thu Sep 17, 3:04am

Thu Sep 17, 2:05am

Thu Sep 17, 1:05am

Thu Sep 17, 12:04am

Wed Sep 16, 11:04pm

Wed Sep 16, 10:04pm

Wed Sep 16, 9:04pm

Wed Sep 16, 8:05pm

Wed Sep 16, 7:04pm

Wed Sep 16, 6:04pm

Wed Sep 16, 5:04pm

Wed Sep 16, 4:04pm

Wed Sep 16, 3:04pm

Wed Sep 16, 2:04pm

Wed Sep 16, 1:04pm

Wed Sep 16, 12:04pm

Wed Sep 16, 11:04am

Wed Sep 16, 10:04am

Wed Sep 16, 8:04am

Wed Sep 16, 7:04am

Wed Sep 16, 6:04am

Wed Sep 16, 5:04am

Wed Sep 16, 4:04am

Wed Sep 16, 3:04am

Wed Sep 16, 2:04am

Wed Sep 16, 1:04am

Wed Sep 16, 12:05am

Tue Sep 15, 11:04pm

Tue Sep 15, 10:04pm

Tue Sep 15, 9:04pm

Tue Sep 15, 8:04pm

Tue Sep 15, 7:04pm

Tue Sep 15, 6:04pm

Tue Sep 15, 5:04pm

Tue Sep 15, 4:05pm

Tue Sep 15, 3:04pm

Tue Sep 15, 2:04pm

Tue Sep 15, 1:04pm

Tue Sep 15, 12:04pm

Tue Sep 15, 11:04am

Tue Sep 15, 10:04am

Tue Sep 15, 9:04am

Tue Sep 15, 8:04am

Tue Sep 15, 7:04am

Tue Sep 15, 6:04am

Tue Sep 15, 5:04am

Tue Sep 15, 4:04am

Tue Sep 15, 3:04am

Tue Sep 15, 2:04am

Tue Sep 15, 1:04am

Tue Sep 15, 12:05am

Mon Sep 14, 11:04pm

Mon Sep 14, 10:04pm

Mon Sep 14, 9:04pm

Mon Sep 14, 8:04pm

Mon Sep 14, 7:04pm

Mon Sep 14, 6:04pm

Mon Sep 14, 5:04pm

Mon Sep 14, 4:05pm

Mon Sep 14, 3:04pm

Mon Sep 14, 2:05pm

Mon Sep 14, 1:04pm

Mon Sep 14, 12:04pm

Mon Sep 14, 11:04am

Mon Sep 14, 10:05am

Mon Sep 14, 9:04am

Mon Sep 14, 8:04am

Mon Sep 14, 7:04am

Mon Sep 14, 6:04am

Mon Sep 14, 5:04am

Mon Sep 14, 4:04am

Mon Sep 14, 3:04am

Mon Sep 14, 2:04am

Mon Sep 14, 1:04am

Mon Sep 14, 12:04am

Sun Sep 13, 11:05pm

Sun Sep 13, 10:04pm

Sun Sep 13, 9:04pm

Sun Sep 13, 8:04pm

Sun Sep 13, 7:05pm

Sun Sep 13, 6:05pm

Sun Sep 13, 5:05pm

Sun Sep 13, 4:04pm

Sun Sep 13, 3:04pm

Sun Sep 13, 2:04pm

Sun Sep 13, 1:04pm

Sun Sep 13, 12:04pm

Sun Sep 13, 11:05am

Sun Sep 13, 10:04am

Sun Sep 13, 9:04am

Sun Sep 13, 8:04am

Sun Sep 13, 7:04am

Sun Sep 13, 6:04am

Sun Sep 13, 5:04am

Sun Sep 13, 4:04am

Sun Sep 13, 3:04am

Sun Sep 13, 2:04am

Sun Sep 13, 1:04am

Sun Sep 13, 12:04am

Sat Sep 12, 11:04pm

Sat Sep 12, 10:04pm

Sat Sep 12, 9:04pm

Sat Sep 12, 8:04pm

Sat Sep 12, 7:05pm

Sat Sep 12, 6:04pm

Sat Sep 12, 5:04pm

Sat Sep 12, 4:05pm

Sat Sep 12, 3:04pm

Sat Sep 12, 2:04pm

Sat Sep 12, 1:05pm

Sat Sep 12, 12:04pm

Sat Sep 12, 11:04am

Sat Sep 12, 10:04am

Sat Sep 12, 9:04am

Meta data:

ID: ee78f7eb-195a-45d8-8bd2-a73617da5bbc
Link: https://api.weather.gov/products/ee78f7eb-195a-45d8-8bd2-a73617da5bbc